Showing default

YAOGAN-35 05A, 53760

Orbit data source: Space-Track

YAOGAN-35 05A, 53760 is a payload satellite owned by PLA GAD (CN) in LEO that was launched on Tue, 06 Sep 2022 UTC via a CHANG ZHENG 2D launch vehicle from the Xichang Space Center, China (XSC). Payload-class satellites include a variety of spacecraft equipped with specific instruments for various scientific and technological missions. These include communications satellites like Starlink; space stations such as the ISS; scientific satellites like the Hubble; Earth observation satellites from companies like Planet Labs, Umbra, and HawkEye 360; GPS; miniature CubeSats for education and research; and military/defense satellites.

Loading next visibility...
Identifier
53760, 2022-109A
Orbit
LEO
Country
Flag of CNCN / PRC
Related business
Manufacturer
DFH
Mission
Operational Defense Sigint
Bus & Motor
Unknown
Mass
~300 kg wet, ~300 kg dry
Launch date (UTC)
2022-09-06 (4 years ago)
Launch vehicle
CHANG ZHENG 2D
Launch site
Xichang Space Center, China (XSC)
Object type
Payload
Rocket body
Debris
Shape & HBR
Box + 2 Pan, 2.5 m
Radar Cross Section
11.063 m², Large (>1 m²)

Expand to show TLE details & history
Last TLE update: 22 hours ago

TLE from 22 hours ago
0 YAOGAN-35 05A
1 53760U 22109A   26172.51694218  .00008495  00000-0  35352-3 0  9996
2 53760  35.0082 311.6904 0002563 356.3395   3.7301 15.23023274211271
Epoch: 2026-06-21T12:24Z
TLE epoch observation values (Epoch: 2026-06-21T12:24:23.804Z)
Latitude
Longitude
-144.12486°
Altitude
493.878 km
Speed
7.621 km/s
True Right ascension
20h 46m 45s
True Declination
0° 00' 00"
Sunlit
Object was in full shadow at epoch
Visualization orbit readout
Latitude
Unknown
Longitude
Unknown
Altitude
Unknown
Speed
Unknown
Apparent Right ascension
Unknown
Apparent Declination
Unknown
Sunlit
N/A
Visualization observer readout
Local Sidereal Time
21:41:52
Azimuth
Unknown
Elevation
Unknown
Doppler factor
Unknown
Orbital elements
Apogee altitude
501.739 km
Perigee altitude
498.214 km
Semi-major axis
6,878.113 km
Eccentricity
0.00026
Inclination
35.0082°
RAAN
311.6904°
Arg. of periapsis
356.3395°
True anomaly
3.73201°
Mean anomaly
3.7301°
Eccentric anomaly
3.73106°
Mean motion
3.80486 °/min
Orbital period
94.62 mins
BSTAR
0.00035352
Loading maneuver chart data...
Computing Atmospheric mass density...
Loading historical data...
Loading historical data...
Loading historical data...
Loading historical data...
Loading historical data...
Loading historical data...
Loading historical data...
Other satellites on launch #109 in the year 2022 (2022-09-06 UTC)

Documentation

Showing up to 5 results
|